EWG9SB LDZD-EDDP

Flight info

Callsign EWG9SB
Flight time N/A
Altitude 36000
Route RAVNA DCT EPODO DCT LAMSI L604 MOOCE/N0361F240 L604 ANELA M726 LASTO/N0360F230 T956 GOXLI GOXLI1V
Aircraft A20N/M-SDE2E3FGHIRWXY/LB1

Departure

Time 2026-04-22 18:39
Airport Zadar Airport (LDZD)

Arrival

Time N/A
Airport Leipzig/Halle Airport (EDDP)
Time Latitude Longitude Altitude Speed Heading
2026-04-22 18:15 44.10113 15.34790 262 ft 0 kts 224°
2026-04-22 18:33 44.10112 15.34789 262 ft 0 kts 224°
2026-04-22 18:33 44.10104 15.34785 262 ft 5 kts 201°
2026-04-22 18:34 44.10099 15.34797 262 ft 0 kts 96°
2026-04-22 18:34 44.10101 15.34807 262 ft 2 kts 85°
2026-04-22 18:34 44.10095 15.34832 262 ft 4 kts 114°
2026-04-22 18:34 44.10084 15.34875 263 ft 5 kts 92°
2026-04-22 18:35 44.10091 15.34932 263 ft 7 kts 77°
2026-04-22 18:35 44.10107 15.35000 263 ft 8 kts 85°
2026-04-22 18:35 44.10113 15.35082 264 ft 9 kts 85°
2026-04-22 18:35 44.10113 15.35175 264 ft 8 kts 93°
2026-04-22 18:36 44.10094 15.35257 265 ft 10 kts 122°
2026-04-22 18:36 44.10044 15.35331 265 ft 12 kts 135°
2026-04-22 18:36 44.09981 15.35417 266 ft 14 kts 135°
2026-04-22 18:36 44.09953 15.35456 266 ft 0 kts 135°
2026-04-22 18:37 44.09952 15.35458 266 ft 1 kts 135°
2026-04-22 18:37 44.09938 15.35477 244 ft 4 kts 135°
2026-04-22 18:37 44.09923 15.35502 266 ft 6 kts 119°
2026-04-22 18:37 44.09932 15.35570 267 ft 6 kts 56°
2026-04-22 18:38 44.09961 15.35619 267 ft 7 kts 46°
2026-04-22 18:38 44.09999 15.35674 268 ft 8 kts 45°
2026-04-22 18:38 44.10046 15.35707 269 ft 8 kts 356°
2026-04-22 18:39 44.10459 15.35177 263 ft 103 kts 316°
2026-04-22 18:39 44.11116 15.34294 258 ft 157 kts 315°
2026-04-22 18:39 44.11834 15.33023 689 ft 166 kts 309°
2026-04-22 18:39 44.12556 15.31899 1492 ft 152 kts 323°
2026-04-22 18:40 44.13355 15.30946 2118 ft 153 kts 326°
2026-04-22 18:40 44.14220 15.29943 2527 ft 172 kts 324°
2026-04-22 18:40 44.15168 15.28777 2974 ft 192 kts 322°
2026-04-22 18:40 44.16198 15.27433 3393 ft 216 kts 321°
2026-04-22 18:41 44.17325 15.25903 3889 ft 237 kts 323°
2026-04-22 18:41 44.18628 15.24347 4408 ft 256 kts 327°
2026-04-22 18:41 44.20042 15.22805 5283 ft 259 kts 328°
2026-04-22 18:41 44.21484 15.21247 6154 ft 265 kts 327°
2026-04-22 18:42 44.22947 15.19652 7053 ft 269 kts 326°
2026-04-22 18:42 44.24416 15.18031 7992 ft 270 kts 325°
2026-04-22 18:42 44.25889 15.16393 8911 ft 272 kts 324°
2026-04-22 18:42 44.27377 15.14734 9836 ft 275 kts 324°
2026-04-22 18:43 44.28883 15.13050 10580 ft 283 kts 324°
2026-04-22 18:43 44.30482 15.11263 10899 ft 306 kts 323°
2026-04-22 18:43 44.32195 15.09346 11253 ft 324 kts 323°
2026-04-22 18:43 44.33954 15.07367 12062 ft 325 kts 324°
2026-04-22 18:44 44.35697 15.05404 12884 ft 328 kts 324°
2026-04-22 18:44 44.37480 15.03398 13705 ft 330 kts 324°
2026-04-22 18:44 44.39277 15.01376 14451 ft 333 kts 324°
2026-04-22 18:44 44.41095 14.99327 15115 ft 337 kts 324°
2026-04-22 18:45 44.42927 14.97262 15828 ft 340 kts 324°
2026-04-22 18:45 44.44776 14.95177 16520 ft 343 kts 324°
2026-04-22 18:45 44.46644 14.93069 17210 ft 346 kts 324°
2026-04-22 18:45 44.48525 14.90943 17894 ft 349 kts 324°
2026-04-22 18:46 44.50423 14.88797 18560 ft 352 kts 324°
2026-04-22 18:46 44.52422 14.86826 19151 ft 352 kts 331°
2026-04-22 18:46 44.54599 14.85248 19737 ft 353 kts 338°
2026-04-22 18:46 44.56914 14.84069 20317 ft 355 kts 343°
2026-04-22 18:47 44.59271 14.83011 20904 ft 357 kts 343°
2026-04-22 18:47 44.61645 14.81927 21463 ft 361 kts 343°
2026-04-22 18:47 44.64049 14.80825 21966 ft 365 kts 343°
2026-04-22 18:47 44.66468 14.79716 22552 ft 367 kts 343°
2026-04-22 18:48 44.68909 14.78598 23097 ft 370 kts 343°
2026-04-22 18:48 44.71371 14.77471 23637 ft 373 kts 343°
2026-04-22 18:48 44.73851 14.76335 24122 ft 376 kts 343°
2026-04-22 18:48 44.76340 14.75194 24618 ft 377 kts 342°
2026-04-22 18:49 44.78839 14.74048 25092 ft 378 kts 342°
2026-04-22 18:49 44.81345 14.72898 25551 ft 380 kts 342°
2026-04-22 18:49 44.83860 14.71739 26084 ft 380 kts 342°
2026-04-22 18:49 44.86349 14.70594 26507 ft 382 kts 342°
2026-04-22 18:50 44.88879 14.69430 26910 ft 385 kts 342°
2026-04-22 18:50 44.91441 14.68250 27219 ft 389 kts 342°
2026-04-22 18:50 44.94029 14.67057 27564 ft 392 kts 342°
2026-04-22 18:50 44.96622 14.65860 28032 ft 393 kts 341°
2026-04-22 18:51 44.99221 14.64660 28436 ft 393 kts 341°
2026-04-22 18:51 45.01827 14.63455 28835 ft 395 kts 341°
2026-04-22 18:51 45.04453 14.62238 29089 ft 400 kts 341°
2026-04-22 18:51 45.07109 14.61006 29378 ft 403 kts 341°
2026-04-22 18:52 45.09779 14.59768 29742 ft 404 kts 341°
2026-04-22 18:52 45.12455 14.58525 30061 ft 406 kts 341°
2026-04-22 18:52 45.15149 14.57273 30367 ft 408 kts 341°
2026-04-22 18:52 45.17856 14.56013 30621 ft 411 kts 341°
2026-04-22 18:53 45.20581 14.54744 30873 ft 413 kts 341°
2026-04-22 18:53 45.23323 14.53465 31131 ft 416 kts 341°
2026-04-22 18:53 45.26080 14.52175 31364 ft 419 kts 341°
2026-04-22 18:53 45.28847 14.50882 31679 ft 419 kts 341°
2026-04-22 18:54 45.31618 14.49587 32016 ft 419 kts 341°
2026-04-22 18:54 45.34388 14.48290 32333 ft 419 kts 341°
2026-04-22 18:54 45.37158 14.46992 32634 ft 419 kts 341°
2026-04-22 18:54 45.39928 14.45693 32996 ft 418 kts 341°
2026-04-22 18:55 45.42688 14.44396 33296 ft 418 kts 341°
2026-04-22 18:55 45.45453 14.43095 33592 ft 419 kts 341°
2026-04-22 18:55 45.48228 14.41787 33799 ft 421 kts 341°
2026-04-22 18:55 45.51008 14.40475 34098 ft 421 kts 341°
2026-04-22 18:56 45.53786 14.39165 34374 ft 420 kts 341°
2026-04-22 18:56 45.56558 14.37855 34601 ft 420 kts 341°
2026-04-22 18:56 45.59335 14.36542 34825 ft 420 kts 341°
2026-04-22 18:56 45.62116 14.35226 35043 ft 421 kts 341°
2026-04-22 18:57 45.64895 14.33910 35250 ft 421 kts 341°
2026-04-22 18:57 45.67674 14.32592 35436 ft 422 kts 341°
2026-04-22 18:57 45.70465 14.31266 35605 ft 423 kts 341°
2026-04-22 18:57 45.73257 14.29939 35812 ft 423 kts 341°
2026-04-22 18:58 45.76008 14.28630 36006 ft 423 kts 341°
2026-04-22 18:58 45.78799 14.27301 36168 ft 422 kts 341°
2026-04-22 18:58 45.84347 14.24656 36207 ft 419 kts 341°
2026-04-22 18:59 45.89883 14.22009 36209 ft 420 kts 341°
2026-04-22 18:59 45.95419 14.19358 36215 ft 419 kts 341°
2026-04-22 19:00 46.00022 14.17149 36218 ft 420 kts 341°
2026-04-22 19:00 46.05552 14.14490 36215 ft 419 kts 341°
2026-04-22 19:01 46.11081 14.11824 36214 ft 421 kts 341°
2026-04-22 19:01 46.16673 14.09125 36211 ft 424 kts 341°
2026-04-22 19:02 46.22401 14.07181 36207 ft 422 kts 352°
2026-04-22 19:02 46.28236 14.06073 36214 ft 423 kts 351°
2026-04-22 19:03 46.34069 14.04928 36217 ft 424 kts 352°
2026-04-22 19:03 46.39921 14.03793 36217 ft 424 kts 352°
2026-04-22 19:04 46.45774 14.02613 36216 ft 425 kts 347°
2026-04-22 19:04 46.51393 13.99983 36222 ft 425 kts 340°
2026-04-22 19:05 46.56963 13.97046 36230 ft 426 kts 341°
2026-04-22 19:05 46.62576 13.94242 36238 ft 427 kts 342°
2026-04-22 19:06 46.68175 13.91499 36243 ft 427 kts 342°
2026-04-22 19:07 46.76577 13.87376 36253 ft 425 kts 342°
2026-04-22 19:07 46.82221 13.84598 36247 ft 428 kts 342°
2026-04-22 19:08 46.87857 13.81817 36254 ft 427 kts 342°
2026-04-22 19:08 46.93493 13.79030 36262 ft 427 kts 342°
2026-04-22 19:09 46.99134 13.76232 36270 ft 429 kts 342°
2026-04-22 19:09 47.04804 13.73415 36280 ft 431 kts 342°
2026-04-22 19:10 47.10471 13.70593 36278 ft 428 kts 342°
2026-04-22 19:10 47.16104 13.67783 36291 ft 427 kts 342°
2026-04-22 19:11 47.21735 13.64965 36294 ft 430 kts 342°
2026-04-22 19:11 47.27413 13.62120 36296 ft 430 kts 342°
2026-04-22 19:12 47.33079 13.59273 36295 ft 430 kts 342°
2026-04-22 19:12 47.38739 13.56422 36299 ft 429 kts 342°
2026-04-22 19:13 47.44394 13.53567 36274 ft 430 kts 343°
2026-04-22 19:13 47.50014 13.50724 36275 ft 429 kts 343°
2026-04-22 19:14 47.55675 13.47854 36265 ft 430 kts 342°
2026-04-22 19:14 47.61333 13.44980 36283 ft 430 kts 342°
2026-04-22 19:15 47.66040 13.42582 36274 ft 431 kts 343°
2026-04-22 19:15 47.72670 13.39196 36278 ft 432 kts 343°
2026-04-22 19:16 47.78358 13.36287 36284 ft 432 kts 343°
2026-04-22 19:16 47.84051 13.33367 36287 ft 433 kts 343°
2026-04-22 19:17 47.89757 13.30432 36288 ft 434 kts 343°
2026-04-22 19:17 47.95470 13.27488 36291 ft 435 kts 343°
2026-04-22 19:18 48.01190 13.24534 36275 ft 434 kts 343°
2026-04-22 19:18 48.06878 13.21589 36273 ft 433 kts 343°
2026-04-22 19:19 48.12572 13.18635 36278 ft 433 kts 343°
2026-04-22 19:19 48.18268 13.15672 36273 ft 433 kts 343°
2026-04-22 19:20 48.23961 13.12703 36271 ft 433 kts 343°
2026-04-22 19:20 48.29615 13.09748 36269 ft 433 kts 343°
2026-04-22 19:21 48.35340 13.06748 36270 ft 433 kts 343°
2026-04-22 19:21 48.41030 13.03760 36274 ft 433 kts 343°
2026-04-22 19:22 48.46700 13.00677 36268 ft 435 kts 337°
2026-04-22 19:22 48.51804 12.95707 36268 ft 439 kts 327°
2026-04-22 19:23 48.56716 12.90321 36273 ft 439 kts 328°
2026-04-22 19:23 48.61737 12.85054 36261 ft 439 kts 329°
2026-04-22 19:24 48.66790 12.79843 36271 ft 440 kts 329°
2026-04-22 19:24 48.71854 12.74619 36277 ft 441 kts 329°
2026-04-22 19:25 48.76924 12.69372 36284 ft 441 kts 329°
2026-04-22 19:25 48.81998 12.64106 36289 ft 442 kts 329°
2026-04-22 19:26 48.87075 12.58824 36280 ft 443 kts 329°
2026-04-22 19:26 48.92161 12.53519 36279 ft 444 kts 329°
2026-04-22 19:27 48.97250 12.48198 36284 ft 444 kts 329°
2026-04-22 19:27 49.02345 12.42856 36288 ft 445 kts 329°
2026-04-22 19:28 49.07429 12.37512 36281 ft 442 kts 329°
2026-04-22 19:28 49.12507 12.32162 36281 ft 446 kts 329°
2026-04-22 19:29 49.17565 12.26820 36290 ft 445 kts 329°
2026-04-22 19:29 49.22651 12.21433 36291 ft 444 kts 329°
2026-04-22 19:30 49.26910 12.16912 36292 ft 445 kts 329°
2026-04-22 19:30 49.32820 12.10623 36298 ft 445 kts 329°
2026-04-22 19:31 49.37901 12.05202 36292 ft 445 kts 329°
2026-04-22 19:31 49.42983 11.99750 36292 ft 446 kts 327°
2026-04-22 19:32 49.47304 11.92803 36288 ft 457 kts 307°
2026-04-22 19:32 49.49985 11.83882 36286 ft 464 kts 292°
2026-04-22 19:33 49.52132 11.74510 36290 ft 465 kts 293°
2026-04-22 19:33 49.54279 11.65131 36305 ft 464 kts 292°
2026-04-22 19:34 49.56858 11.56081 36308 ft 459 kts 304°
2026-04-22 19:34 49.60663 11.48308 36315 ft 452 kts 318°
2026-04-22 19:35 49.65053 11.41364 36301 ft 452 kts 318°
2026-04-22 19:35 49.68694 11.35555 36312 ft 453 kts 318°
2026-04-22 19:36 49.73941 11.27709 36319 ft 448 kts 328°
2026-04-22 19:36 49.79440 11.23541 36319 ft 437 kts 348°
2026-04-22 19:37 49.85404 11.22490 36322 ft 429 kts
2026-04-22 19:37 49.88340 11.23155 36308 ft 425 kts 18°
2026-04-22 19:37 49.91082 11.24778 36308 ft 421 kts 30°
2026-04-22 19:38 49.96138 11.29290 36053 ft 417 kts 32°
2026-04-22 19:38 49.98625 11.31555 35336 ft 414 kts 33°
2026-04-22 19:38 50.01082 11.33879 34465 ft 413 kts 34°
2026-04-22 19:38 50.03532 11.36212 33376 ft 413 kts 35°
2026-04-22 19:39 50.05996 11.38547 32191 ft 416 kts 35°
2026-04-22 19:39 50.08478 11.40888 31010 ft 419 kts 35°
2026-04-22 19:39 50.10983 11.43240 29835 ft 420 kts 36°
2026-04-22 19:39 50.13470 11.45575 28911 ft 414 kts 36°
2026-04-22 19:40 50.15915 11.47872 28029 ft 407 kts 35°
2026-04-22 19:40 50.18320 11.50137 27161 ft 401 kts 35°
2026-04-22 19:40 50.20699 11.52382 26321 ft 396 kts 34°
2026-04-22 19:40 50.23039 11.54596 25494 ft 391 kts 34°
2026-04-22 19:41 50.25346 11.56783 24731 ft 385 kts 34°
2026-04-22 19:41 50.27618 11.58938 23955 ft 380 kts 34°
2026-04-22 19:41 50.29835 11.61043 23053 ft 375 kts 34°
2026-04-22 19:41 50.32088 11.63182 22115 ft 372 kts 33°
2026-04-22 19:42 50.34284 11.65268 21383 ft 365 kts 33°
2026-04-22 19:42 50.36409 11.67288 20977 ft 362 kts 33°
2026-04-22 19:42 50.38576 11.69354 20732 ft 367 kts 33°
2026-04-22 19:42 50.40788 11.71464 20476 ft 366 kts 33°
2026-04-22 19:43 50.45062 11.75541 19980 ft 359 kts 33°
2026-04-22 19:43 50.47193 11.77578 19726 ft 359 kts 33°
2026-04-22 19:43 50.49325 11.79618 19478 ft 358 kts 33°
2026-04-22 19:44 50.51446 11.81651 19241 ft 356 kts 33°
2026-04-22 19:44 50.53559 11.83677 18997 ft 355 kts 33°
2026-04-22 19:44 50.55662 11.85696 18757 ft 354 kts 33°
2026-04-22 19:44 50.57756 11.87708 18509 ft 352 kts 33°
2026-04-22 19:45 50.59844 11.89717 18235 ft 351 kts 33°
2026-04-22 19:45 50.61923 11.91719 17963 ft 350 kts 33°
2026-04-22 19:45 50.63993 11.93715 17687 ft 348 kts 33°
2026-04-22 19:45 50.66053 11.95703 17427 ft 347 kts 33°
2026-04-22 19:46 50.68107 11.97687 17163 ft 346 kts 33°
2026-04-22 19:46 50.70154 11.99667 16898 ft 344 kts 33°
2026-04-22 19:46 50.72194 12.01642 16631 ft 344 kts 32°
2026-04-22 19:46 50.74227 12.03612 16371 ft 343 kts 32°
2026-04-22 19:47 50.76255 12.05579 16115 ft 341 kts 32°
2026-04-22 19:47 50.78275 12.07541 15851 ft 340 kts 32°
2026-04-22 19:47 50.79607 12.08836 15691 ft 339 kts 32°
2026-04-22 19:47 50.82292 12.11448 15268 ft 338 kts 32°
2026-04-22 19:48 50.84292 12.13396 14797 ft 337 kts 32°
2026-04-22 19:48 50.86281 12.15336 14336 ft 334 kts 32°
2026-04-22 19:48 50.88250 12.17258 13851 ft 330 kts 32°
2026-04-22 19:48 50.90192 12.19156 13388 ft 326 kts 32°
2026-04-22 19:49 50.92106 12.21027 12941 ft 321 kts 32°
2026-04-22 19:49 50.93991 12.22873 12499 ft 316 kts 31°
2026-04-22 19:49 50.95847 12.24693 12071 ft 312 kts 31°
2026-04-22 19:49 50.97682 12.26493 11635 ft 308 kts 31°
2026-04-22 19:50 50.99495 12.28273 11208 ft 305 kts 31°
2026-04-22 19:50 51.01289 12.30036 10787 ft 302 kts 31°
2026-04-22 19:50 51.03030 12.31749 10574 ft 285 kts 31°
2026-04-22 19:50 51.04127 12.32829 10377 ft 277 kts 31°
2026-04-22 19:51 51.05755 12.34433 9934 ft 274 kts 31°
2026-04-22 19:51 51.07371 12.36025 9540 ft 272 kts 31°
2026-04-22 19:51 51.08950 12.37583 9370 ft 264 kts 31°
2026-04-22 19:51 51.10528 12.39140 9240 ft 269 kts 31°
2026-04-22 19:52 51.12111 12.40703 9111 ft 267 kts 31°
2026-04-22 19:52 51.14195 12.42764 8942 ft 266 kts 31°
2026-04-22 19:52 51.15258 12.43818 8735 ft 267 kts 30°
2026-04-22 19:52 51.16829 12.45374 8405 ft 264 kts 30°
2026-04-22 19:53 51.18382 12.46913 8076 ft 263 kts 30°
2026-04-22 19:53 51.19921 12.48438 7740 ft 264 kts 30°
2026-04-22 19:53 51.21477 12.49981 7405 ft 262 kts 30°
2026-04-22 19:53 51.23020 12.51515 7074 ft 262 kts 30°
2026-04-22 19:54 51.24570 12.53057 6734 ft 262 kts 30°
2026-04-22 19:54 51.26112 12.54592 6392 ft 260 kts 30°
2026-04-22 19:54 51.27638 12.56112 6056 ft 259 kts 30°
2026-04-22 19:54 51.29171 12.57639 5719 ft 259 kts 30°
2026-04-22 19:55 51.30578 12.59403 5419 ft 256 kts 43°
2026-04-22 19:55 51.32016 12.60968 5300 ft 247 kts 17°
2026-04-22 19:55 51.33649 12.61215 5308 ft 229 kts 355°
2026-04-22 19:55 51.35189 12.60993 5311 ft 220 kts 354°
2026-04-22 19:56 51.36734 12.60761 5302 ft 224 kts 354°
2026-04-22 19:56 51.38266 12.60540 5222 ft 219 kts 354°
2026-04-22 19:56 51.39765 12.60332 5077 ft 212 kts 354°
2026-04-22 19:56 51.41200 12.60135 4980 ft 202 kts 354°
2026-04-22 19:57 51.42584 12.59943 4734 ft 199 kts 354°
2026-04-22 19:57 51.43960 12.59759 4457 ft 198 kts 354°
2026-04-22 19:57 51.45247 12.59100 4151 ft 197 kts 321°
2026-04-22 19:57 51.45818 12.57087 3497 ft 219 kts 267°
2026-04-22 19:58 51.45031 12.54973 2965 ft 237 kts 213°
2026-04-22 19:58 51.43434 12.54612 2598 ft 240 kts 160°
2026-04-22 19:58 51.42226 12.56302 2207 ft 234 kts 108°